FW5763 Weather Reports


Display with metric or nautical units.
time (UTC)temp
F
wind
direction
speed
MPH
gust
MPH
rain 1hr
in
rain 24hr
in
rain mn
in
humidity
%
barometer
mb
20260831115216 55 244 1.0 2.0 0.00 0.00 0.00 92 1014.0
20260831114116 56 249 1.0 2.0 0.00 0.00 0.00 91 1014.0
20260831113116 56 268 1.0 2.0 0.00 0.00 0.00 91 1014.0
20260831112116 56 265 0.0 1.0 0.00 0.00 0.00 91 1014.0
20260831111116 56 281 0.0 1.0 0.00 0.00 0.00 91 1014.0
20260831110135 56 0.0 1.0 0.00 0.00 0.00 91 1014.1
20260831105116 56 296 2.0 2.0 0.00 0.00 0.00 91 1014.0
20260831104115 56 196 1.0 2.0 0.00 0.00 0.00 91 1014.1
20260831103115 56 190 1.0 3.0 0.00 0.00 0.00 91 1014.1
20260831102115 56 84 2.0 3.0 0.00 0.00 0.00 91 1014.0
20260831101115 56 119 1.0 2.0 0.00 0.00 0.00 91 1013.9
20260831100116 56 108 1.0 3.0 0.00 0.00 0.00 91 1014.0
20260831095116 56 0.0 0.0 0.00 0.00 0.00 91 1013.9
20260831094116 56 0.0 0.0 0.00 0.00 0.00 91 1014.0
20260831093116 56 136 1.0 2.0 0.00 0.00 0.00 91 1014.0
20260831092136 56 221 0.0 1.0 0.00 0.00 0.00 91 1014.1
20260831091135 56 284 2.0 3.0 0.00 0.00 0.00 90 1014.0
20260831090156 56 253 2.0 3.0 0.00 0.00 0.00 90 1014.0
20260831085115 56 333 0.0 3.0 0.00 0.00 0.00 91 1014.0
20260831084115 56 317 2.0 4.0 0.00 0.00 0.00 91 1014.1
20260831083116 56 0.0 0.0 0.00 0.00 0.00 91 1014.2
20260831082115 56 281 2.0 4.0 0.00 0.00 0.00 90 1014.2
20260831081116 56 241 2.0 4.0 0.00 0.00 0.00 90 1014.3
20260831080115 56 266 1.0 2.0 0.00 0.00 0.00 90 1014.3
20260831075115 56 77 1.0 1.0 0.00 0.00 0.00 90 1014.3
20260831074115 56 87 2.0 3.0 0.00 0.00 0.00 90 1014.3
20260831073115 56 151 1.0 2.0 0.00 0.00 0.00 90 1014.4
20260831072115 56 182 1.0 2.0 0.00 0.00 0.00 90 1014.3
20260831071115 56 156 0.0 2.0 0.00 0.00 0.00 90 1014.2
20260831070135 56 182 0.0 1.0 0.00 0.00 0.00 90 1014.2
20260831065116 56 98 2.0 2.0 0.00 0.00 0.00 90 1014.2
20260831064115 56 152 2.0 5.0 0.00 0.00 0.00 90 1014.2
20260831063115 56 133 2.0 3.0 0.00 0.00 0.00 90 1014.3
20260831062115 56 0.0 2.0 0.00 0.00 0.00 90 1014.3
20260831061115 56 88 0.0 2.0 0.00 0.00 0.00 90 1014.3
20260831060115 57 83 2.0 3.0 0.00 0.00 0.00 90 1014.4
20260831055115 57 94 3.0 4.0 0.00 0.00 0.00 90 1014.4
20260831054115 57 131 1.0 6.0 0.00 0.00 0.00 90 1014.5
20260831053115 57 92 4.0 7.0 0.00 0.00 0.00 90 1014.5
20260831052115 57 88 3.0 6.0 0.00 0.00 0.00 90 1014.4
20260831051115 57 118 3.0 4.0 0.00 0.00 0.00 90 1014.4
20260831050115 56 133 2.0 4.0 0.00 0.00 0.00 90 1014.5
20260831045115 56 129 3.0 7.0 0.00 0.00 0.00 90 1014.5
20260831044115 56 94 3.0 6.0 0.00 0.00 0.00 90 1014.5
20260831043135 57 124 4.0 7.0 0.00 0.00 0.00 89 1014.4
20260831042115 57 89 3.0 6.0 0.00 0.00 0.00 89 1014.3
20260831041115 57 95 1.0 2.0 0.00 0.00 0.00 89 1014.2
20260831040115 57 100 4.0 6.0 0.00 0.00 0.00 89 1014.1
20260831035115 57 66 2.0 7.0 0.00 0.00 0.00 89 1014.1
20260831034115 57 108 4.0 8.0 0.00 0.00 0.00 88 1013.9
20260831033115 58 98 10.0 15.0 0.00 0.00 0.00 88 1013.8
20260831032115 58 95 6.0 9.0 0.00 0.00 0.00 87 1013.7
20260831031115 58 84 6.0 9.0 0.00 0.00 0.00 86 1013.6
20260831030215 59 82 6.0 11.0 0.00 0.00 0.00 85 1013.5
20260831025115 60 77 7.0 12.0 0.00 0.00 0.00 83 1013.4
20260831024135 61 84 4.0 9.0 0.00 0.00 0.00 81 1013.3
20260831023115 62 57 3.0 4.0 0.00 0.00 0.00 78 1013.3
20260831022115 62 67 2.0 7.0 0.00 0.00 0.00 77 1013.3
20260831021115 63 114 5.0 7.0 0.00 0.00 0.00 75 1013.4
20260831020115 64 96 6.0 10.0 0.00 0.00 0.00 73 1013.5
20260831015236 64 95 5.0 7.0 0.00 0.00 0.00 72 1013.4
20260831014115 65 110 5.0 9.0 0.00 0.00 0.00 70 1013.3
20260831013115 66 86 6.0 10.0 0.00 0.00 0.00 69 1013.2
20260831012135 67 101 4.0 6.0 0.00 0.00 0.00 67 1013.3
20260831011115 68 93 3.0 6.0 0.00 0.00 0.00 66 1013.4
20260831010115 68 134 2.0 4.0 0.00 0.00 0.00 65 1013.4
20260831005115 68 94 3.0 8.0 0.00 0.00 0.00 64 1013.3
20260831004115 69 97 5.0 8.0 0.00 0.00 0.00 62 1013.3
20260831003115 69 97 4.0 8.0 0.00 0.00 0.00 62 1013.4
20260831002115 70 115 6.0 8.0 0.00 0.00 0.00 62 1013.4
20260831001117 70 92 3.0 7.0 0.00 0.00 0.00 61 1013.4
20260831000116 70 144 5.0 9.0 0.00 0.00 0.00 60 1013.5
20260830235118 71 120 4.0 9.0 0.00 0.00 0.00 59 1013.5
20260830234117 72 140 4.0 7.0 0.00 0.00 0.00 60 1013.4
20260830233118 72 165 3.0 5.0 0.00 0.00 0.00 61 1013.4
20260830232116 71 141 2.0 5.0 0.00 0.00 0.00 61 1013.4
20260830231157 70 102 3.0 6.0 0.00 0.00 0.00 62 1013.5
20260830230117 70 196 4.0 10.0 0.00 0.00 0.00 62 1013.6
20260830225117 71 134 6.0 10.0 0.00 0.00 0.00 60 1013.6
20260830224116 72 185 3.0 6.0 0.00 0.00 0.00 60 1013.6
20260830223117 72 232 4.0 7.0 0.00 0.00 0.00 60 1013.7
20260830222137 71 99 6.0 8.0 0.00 0.00 0.00 59 1013.8
20260830221117 72 178 3.0 8.0 0.00 0.00 0.00 60 1013.8
20260830220116 72 144 5.0 9.0 0.00 0.00 0.00 60 1013.9
20260830215117 71 204 4.0 10.0 0.00 0.00 0.00 60 1014.1
20260830214117 71 214 4.0 7.0 0.00 0.00 0.00 60 1014.2
20260830213116 70 116 7.0 10.0 0.00 0.00 0.00 62 1014.4
20260830212117 70 119 3.0 5.0 0.00 0.00 0.00 62 1014.6
20260830211117 70 118 6.0 12.0 0.00 0.00 0.00 64 1014.7
20260830210137 70 203 3.0 10.0 0.00 0.00 0.00 64 1014.9
20260830205116 69 152 4.0 7.0 0.00 0.00 0.00 65 1015.0
20260830204117 69 189 4.0 8.0 0.00 0.00 0.00 65 1015.0
20260830203117 69 192 3.0 6.0 0.00 0.00 0.00 65 1015.1
20260830202117 69 146 4.0 7.0 0.00 0.00 0.00 65 1015.2
20260830201116 68 117 2.0 5.0 0.00 0.00 0.00 67 1015.2
20260830200117 67 100 3.0 7.0 0.00 0.00 0.00 68 1015.3
20260830195117 67 212 6.0 8.0 0.00 0.00 0.00 68 1015.4
20260830194117 66 166 4.0 8.0 0.00 0.00 0.00 70 1015.4
20260830193116 65 122 3.0 4.0 0.00 0.00 0.00 73 1015.5
20260830192117 65 104 5.0 8.0 0.00 0.00 0.00 74 1015.6
20260830191117 65 124 4.0 7.0 0.00 0.00 0.00 74 1015.6
20260830190117 64 143 4.0 7.0 0.00 0.00 0.00 76 1015.6
20260830185117 64 171 5.0 10.0 0.00 0.00 0.00 77 1015.7
20260830184136 63 195 3.0 9.0 0.00 0.00 0.00 77 1015.8
20260830183117 63 167 3.0 10.0 0.00 0.00 0.00 77 1015.9
20260830182117 63 191 5.0 8.0 0.00 0.00 0.00 77 1015.9
20260830181117 62 185 4.0 9.0 0.00 0.00 0.00 77 1015.8
20260830180117 62 146 6.0 9.0 0.00 0.00 0.00 79 1016.0
20260830175117 62 209 2.0 5.0 0.00 0.00 0.00 79 1015.9
20260830174117 62 134 4.0 9.0 0.00 0.00 0.00 77 1015.9
20260830173116 62 157 5.0 9.0 0.00 0.00 0.00 77 1016.0
20260830172117 62 131 3.0 6.0 0.00 0.00 0.00 77 1016.0
20260830171137 62 155 3.0 6.0 0.00 0.00 0.00 77 1015.8
20260830170117 62 134 2.0 4.0 0.00 0.00 0.00 77 1015.7
20260830165116 61 146 2.0 5.0 0.00 0.00 0.00 78 1015.7
20260830164117 60 335 2.0 2.0 0.00 0.00 0.00 80 1015.7
20260830163117 60 208 1.0 2.0 0.00 0.00 0.00 83 1015.7
20260830162117 58 3 0.0 2.0 0.00 0.00 0.00 86 1015.7
20260830161116 57 250 0.0 1.0 0.00 0.00 0.00 87 1015.7
20260830160117 57 303 1.0 2.0 0.00 0.00 0.00 89 1015.8
20260830155137 56 36 0.0 2.0 0.00 0.00 0.00 91 1015.9
20260830154116 55 110 1.0 2.0 0.00 0.00 0.00 92 1015.9
20260830153117 55 52 1.0 1.0 0.00 0.00 0.00 93 1016.0
20260830152117 54 83 2.0 3.0 0.00 0.00 0.00 93 1015.9
20260830151116 54 0.0 0.0 0.00 0.00 0.00 93 1016.0
20260830150117 53 0.0 0.0 0.00 0.00 0.00 93 1015.9
20260830145117 53 0.0 0.0 0.00 0.00 0.00 93 1015.9
20260830144117 52 0.0 0.0 0.00 0.00 0.00 93 1015.9
20260830143116 52 0.0 0.0 0.00 0.00 0.00 93 1015.7
20260830142116 52 0.0 0.0 0.00 0.00 0.00 93 1015.7
20260830141116 51 0.0 0.0 0.00 0.00 0.00 93 1015.6
20260830140136 51 0.0 0.0 0.00 0.00 0.00 93 1015.6
20260830135117 50 0.0 0.0 0.00 0.00 0.00 93 1015.6
20260830134117 50 0.0 0.0 0.00 0.00 0.00 92 1015.4
20260830133116 51 0.0 0.0 0.00 0.00 0.00 92 1015.3
20260830132117 51 0.0 0.0 0.00 0.00 0.00 92 1015.3
20260830131116 51 0.0 0.0 0.00 0.00 0.00 92 1015.3
20260830130136 51 0.0 0.0 0.00 0.00 0.00 92 1015.3
20260830125137 52 0.0 0.0 0.00 0.00 0.00 92 1015.3
20260830124117 52 0.0 0.0 0.00 0.00 0.00 92 1015.1
20260830123117 52 0.0 0.0 0.00 0.00 0.00 92 1015.2
20260830122116 52 0.0 0.0 0.00 0.00 0.00 92 1015.1
20260830121116 52 0.0 0.0 0.00 0.00 0.00 92 1015.1
20260830120116 52 0.0 0.0 0.00 0.00 0.00 92 1015.0